Find Starlink 31404

NORAD ID: 59521 Int'l Des: 2024-073 Owner: SPXS Country: US Constellation: starlink operational
LEOCIRCULAR

Current View

Loading 3D Globe...

About Starlink 31404

Starlink 31404 (NORAD 59521) is a starlink constellation satellite (v2 mini) launched Apr 17, 2024 by SPXS of US. It operates in LEO, CIRCULAR orbit with a mass of 730.00 kg.

About Starlink 31404

Description loading...

Upcoming Passes

Passes for default location (London). Set your location on the main map for personalized predictions.

Altitude History

Loading altitude history...

Two-Line Element Set

1 59521U 24073L 26170.11644780 -.00000114 00000-0 53748-5 0 9994
2 59521 43.0027 105.5489 0000837 237.6190 122.4580 15.27580215121684
Epoch: Jun 19, 2026 • Age: 13 hours

Current Status

Altitude 484.3 km
Velocity 7.62 km/s
Sub-Earth Point -7.72°S, 43.06°W
Launch Date Apr 17, 2024
Age 2.1 years
Type internet

Technical Details

Classification Payload
Mass 730.00 kg
Dry Mass 700.00 kg
Total Mass 730.00 kg
Length 0.30 m
Diameter 4.10 m
Span 29.00 m
Shape Box + pan
Manufacturer SPXS
Bus Type Starlink V2M
Phase Status In Orbit
Owner/State SPXS/US

Most Searched